[TLELIST] Archives

 

Current TLEs

June 8th 2008 PDT

HST 1 20580U 90037B 08160.16413949 .00000305 00000-0 10766-4 0 1530 2 20580 028.4682 022.0726 0003559 287.8962 072.1235 15.00384504793627 ISS (ZARYA) 1 25544U 98067A 08160.47070602 .00004996 00000-0 34500-4 0 6273 2 25544 051.6409 061.3309 0005524 320.2340 034.7621 15.76711678547142 CXO 1 25867U 99040B 08159.62500000 +.00000295 +00000-0 +10000-3 0 02078 2 25867 063.7321 080.7062 6817343 279.0152 356.2901 00.37803594003595 ____________________________________________________________________ These 2-Line ...Continue Reading

Current TLEs

June 7th 2008 PDT

HST 1 20580U 90037B 08158.90028263 .00000272 00000-0 81941-5 0 1526 2 20580 028.4683 030.3204 0003680 272.7154 087.3014 15.00383877793436 ISS (ZARYA) 1 25544U 98067A 08159.34884612 .00000029 00000-0 42304-5 0 6209 2 25544 051.6384 067.1120 0005643 312.2684 150.5276 15.76733454546972 CXO 1 25867U 99040B 08156.95833333 +.00000300 +00000-0 +10000-3 0 02065 2 25867 063.7286 080.7776 6809184 279.0829 353.1942 00.37795398003584 ____________________________________________________________________ These 2-Line ...Continue Reading

Current TLEs

June 6th 2008 PDT

HST 1 20580U 90037B 08157.76946245 .00000275 00000-0 83645-5 0 1513 2 20580 028.4684 037.7000 0003854 258.7276 101.2876 15.00383659793265 ISS (ZARYA) 1 25544U 98067A 08158.33416863 -.00007633 00000-0 -42532-4 0 6141 2 25544 051.6389 072.3451 0005602 304.9561 154.3623 15.76710348546817 CXO 1 25867U 99040B 08156.95833333 +.00000300 +00000-0 +10000-3 0 02065 2 25867 063.7286 080.7776 6809184 279.0829 353.1942 00.37795398003584 ____________________________________________________________________ These 2-Line ...Continue Reading

Current TLEs

June 5th 2008 PDT

HST 1 20580U 90037B 08155.97345485 +.00000281 +00000-0 +88943-5 0 01628 2 20580 028.4683 049.4135 0003922 240.5943 119.4260 15.00383201792999 ISS (ZARYA) 1 25544U 98067A 08157.38441170 .00009075 00000-0 59300-4 0 6077 2 25544 051.6375 077.2401 0005651 298.8484 165.8262 15.76722265546660 CXO 1 25867U 99040B 08156.95833333 +.00000300 +00000-0 +10000-3 0 02065 2 25867 063.7286 080.7776 6809184 279.0829 353.1942 00.37795398003584 ____________________________________________________________________ These 2-Line ...Continue Reading

Current TLEs

June 4th 2008 PDT

HST 1 20580U 90037B 08156.10649230 .00000298 00000-0 10157-4 0 1505 2 20580 028.4683 048.5452 0003877 241.5995 118.4206 15.00383369793016 ISS (ZARYA) 1 25544U 98067A 08155.41978245 .00024371 00000-0 15208-3 0 5979 2 25544 051.6399 087.3640 0005391 290.2679 175.1850 15.76736537546356 CXO 1 25867U 99040B 08154.33333333 +.00000410 +00000-0 +10000-3 0 02051 2 25867 063.7125 080.8523 6807249 279.1481 355.7516 00.37802452003576 ____________________________________________________________________ These 2-Line ...Continue Reading

Current TLEs

June 3rd 2008 PDT

HST 1 20580U 90037B 08154.90915383 .00000291 00000-0 96455-5 0 1493 2 20580 028.4682 056.3547 0003967 229.7051 130.3191 15.00382971792831 ISS (ZARYA) 1 25544U 98067A 08155.16419272 .00012767 00000-0 81948-4 0 5949 2 25544 051.6372 088.6850 0005551 297.2214 156.3867 15.76667117546316 CXO 1 25867U 99040B 08154.33333333 +.00000410 +00000-0 +10000-3 0 02051 2 25867 063.7125 080.8523 6807249 279.1481 355.7516 00.37802452003576 ____________________________________________________________________ These 2-Line ...Continue Reading

Current TLEs

June 2nd 2008 PDT

HST 1 20580U 90037B 08152.91358989 +.00000306 +00000-0 +10840-4 0 01596 2 20580 028.4679 069.3690 0003967 209.7724 150.2633 15.00382418792530 ISS (ZARYA) 1 25544U 98067A 08154.15662503 .00012091 00000-0 77928-4 0 5868 2 25544 051.6372 093.8796 0005412 291.7396 199.0904 15.76637552546157 CXO 1 25867U 99040B 08151.66666667 +.00000540 +00000-0 +10000-3 0 02046 2 25867 063.6891 080.9674 6805844 279.1433 352.7644 00.37809652003566 ____________________________________________________________________ These 2-Line ...Continue Reading

Current TLEs

June 1st 2008 PDT

HST 1 20580U 90037B 08153.17966509 .00000325 00000-0 12247-4 0 1480 2 20580 028.4679 067.6333 0003934 211.8188 148.2162 15.00382650792573 ISS (ZARYA) 1 25544U 98067A 08153.20748251 .00011377 00000-0 73661-4 0 5808 2 25544 051.6367 098.7730 0005447 287.4681 212.5211 15.76610628546001 CXO 1 25867U 99040B 08151.66666667 +.00000540 +00000-0 +10000-3 0 02046 2 25867 063.6891 080.9674 6805844 279.1433 352.7644 00.37809652003566 ____________________________________________________________________ These 2-Line ...Continue Reading

Current TLEs

May 31st 2008 PDT

HST 1 20580U 90037B 08151.91580792 .00000305 00000-0 10725-4 0 1472 2 20580 028.4679 075.8766 0004001 199.8428 160.2003 15.00382089792385 ISS (ZARYA) 1 25544U 98067A 08151.86738640 .00009456 00000-0 62025-4 0 5727 2 25544 051.6375 105.6818 0005301 281.2532 167.5406 15.76571531545790 CXO 1 25867U 99040B 08151.66666667 +.00000540 +00000-0 +10000-3 0 02046 2 25867 063.6891 080.9674 6805844 279.1433 352.7644 00.37809652003566 ____________________________________________________________________ These 2-Line ...Continue Reading

Current TLEs

May 30th 2008 PDT

HST 1 20580U 90037B 08150.25283761 .00000310 00000-0 11086-4 0 1460 2 20580 028.4678 086.7216 0003997 182.8465 177.2102 15.00381619792130 ISS (ZARYA) 1 25544U 98067A 08151.18707176 .00008555 00000-0 56554-4 0 5697 2 25544 051.6368 109.1888 0005356 279.0029 265.9528 15.76553779545684 CXO 1 25867U 99040B 08149.04166667 +.00000557 +00000-0 +10000-3 0 02037 2 25867 063.6724 081.0456 6801232 279.1350 355.4955 00.37807499003557 ____________________________________________________________________ These 2-Line ...Continue Reading
  • This mailing list is a public mailing list - anyone may join or leave, at any time.
  • This mailing list is announce-only.

International Space Station (ISS) / Hubble Space Telescope (HST) / Chandra X-Ray Observatory Orbital Data via EMAIL

Privacy Policy:

Private list